Location: Erlenbrunn
(49.1717°N, 7.6142°E)
Time: 05:27:13
(UTC+00:00)

Cosmos 1867 - Pass Details

Date: 25 November 2020
Orbit: 776 x 800 km, 65.0° (Epoch: 24 January)

Event Time Altitude Azimuth Distance (km) Brightness Sun altitude
Rises 17:58:07 0° 221° (SW) 3,268 7.5 -22.3°
Reaches altitude 10° 18:00:31 10° 223° (SW) 2,347 6.7 -22.7°
Maximum altitude 18:05:56 79° 310° (NW) 813 3.6 -23.6°
Enters shadow 18:07:39 45° 28° (NNE) 1,076 4.0 -23.9°
